This demonstration page uses our WeatherBlox Daily Observations layout. Learn more.

Left ArrowRight Arrow

39.01783, -85.05884

Hourly Observations for October 15, 2016

Temp ( °F °C ) Dew Point ( °F °C ) Humidity (%) Winds ( mph kmh ) Pressure ( in mb ) Visibility ( mi km ) Precip ( " mm )
12:52 am 00:52 Mostly Cloudy 55 12.8 49 9.4 80 80 SE 6 9 30.18 1022 10 16 0.00 0.00
1:52 am 01:52 Cloudy 56 13.3 51 10.6 84 84 SE 7 11 30.17 1022 10 16 0.00 0.00
2:52 am 02:52 Mostly Cloudy 55 12.8 51 10.6 87 87 SSE 5 7 30.18 1022 10 16 0.00 0.00
3:52 am 03:52 Cloudy 56 13.3 52 11.1 87 87 SSE 6 9 30.16 1022 10 16 0.00 0.00
4:52 am 04:52 Cloudy 56 13.3 53 11.7 90 90 S 5 7 30.16 1022 10 16 0.00 0.00
5:52 am 05:52 Cloudy 56 13.3 54 12.2 93 93 SSE 5 7 30.17 1022 10 16 0.00 0.00
6:52 am 06:52 Cloudy 57 13.9 54 12.2 90 90 SSE 6 9 30.18 1022 10 16 0.00 0.00
7:52 am 07:52 Mostly Cloudy 57 13.9 54 12.2 90 90 S 5 7 30.18 1022 10 16 0.00 0.00
8:52 am 08:52 Partly Cloudy 56 13.3 54 12.2 93 93 SSE 5 7 30.19 1023 10 16 0.00 0.00
9:52 am 09:52 Partly Cloudy 59 15 56 13.3 90 90 SSE 3 6 30.20 1023 10 16 0.00 0.00
10:52 am 10:52 Partly Cloudy 66 18.9 59 15 78 78 SSW 10 17 30.19 1022 10 16 0.00 0.00
11:52 am 11:52 Mostly Sunny 72 22.2 60 15.6 66 66 SSW 15 24 30.18 1022 10 16 0.00 0.00
12:52 pm 12:52 Partly Cloudy 75 23.9 60 15.6 60 60 SSW 15 24 30.17 1022 10 16 0.00 0.00
1:52 pm 13:52 Partly Cloudy 77 25 59 15 54 54 SW 12 19 30.14 1021 10 16 0.00 0.00
2:52 pm 14:52 Partly Cloudy 78 25.6 59 15 52 52 SSW 17 28 30.12 1020 10 16 0.00 0.00
3:52 pm 15:52 Partly Cloudy 78 25.6 59 15 52 52 SSW 15 24 30.11 1020 10 16 0.00 0.00
4:52 pm 16:52 Partly Cloudy 78 25.6 58 14.4 50 50 SSW 12 19 30.10 1019 10 16 0.00 0.00
5:52 pm 17:52 Partly Cloudy 77 25 58 14.4 52 52 SSW 10 17 30.09 1019 10 16 0.00 0.00
6:52 pm 18:52 Mostly Sunny 73 23 59 15 61 61 SSW 6 9 30.09 1019 10 16 0.00 0.00
7:52 pm 19:52 Mostly Clear 68 20 59 15 73 73 S 3 6 30.10 1019 10 16 0.00 0.00
8:52 pm 20:52 Clear 67 19.4 59 15 76 76 S 5 7 30.11 1020 10 16 0.00 0.00
9:52 pm 21:52 Clear 65 18.3 59 15 81 81 S 7 11 30.11 1020 10 16 0.00 0.00
10:52 pm 22:52 Mostly Clear 66 18.9 59 15 78 78 SSW 6 9 30.11 1020 10 16 0.00 0.00
11:52 pm 23:52 Mostly Clear 63 17.2 59 15 87 87 S 7 11 30.11 1020 10 16 0.00 0.00

Powered by AerisWeather